TimeEST,TemperatureF,Dew PointF,Humidity,Sea Level PressureIn,VisibilityMPH,Wind Direction,Wind SpeedMPH,Gust SpeedMPH,PrecipitationIn,Events,Conditions,WindDirDegrees,DateUTC
12:31 AM,32.0,28.4,87,30.51,3.0,Calm,Calm,-,N/A,,Clear,0,2012-11-17 05:31:00
12:53 AM,30.9,28.0,89,30.53,3.0,Calm,Calm,-,N/A,,Clear,0,2012-11-17 05:53:00
1:48 AM,28.4,26.6,93,30.51,2.5,Calm,Calm,-,N/A,,Clear,0,2012-11-17 06:48:00
1:53 AM,28.9,26.1,89,30.53,2.5,Calm,Calm,-,N/A,,Clear,0,2012-11-17 06:53:00
2:08 AM,30.2,26.6,86,30.51,1.8,Calm,Calm,-,N/A,,Clear,0,2012-11-17 07:08:00
2:19 AM,30.2,28.4,93,30.52,3.0,Calm,Calm,-,N/A,,Clear,0,2012-11-17 07:19:00
2:53 AM,28.9,27.0,92,30.54,3.0,Calm,Calm,-,N/A,,Clear,0,2012-11-17 07:53:00
3:15 AM,28.4,26.6,93,30.52,1.8,Calm,Calm,-,N/A,,Clear,0,2012-11-17 08:15:00
3:26 AM,28.4,26.6,93,30.52,1.2,Calm,Calm,-,N/A,,Clear,0,2012-11-17 08:26:00
3:53 AM,30.0,27.0,88,30.56,1.5,Calm,Calm,-,N/A,,Clear,0,2012-11-17 08:53:00
4:10 AM,28.4,26.6,93,30.53,2.5,Calm,Calm,-,N/A,,Clear,0,2012-11-17 09:10:00
4:17 AM,30.2,26.6,86,30.53,3.0,Calm,Calm,-,N/A,,Clear,0,2012-11-17 09:17:00
4:33 AM,28.4,26.6,93,30.54,1.8,Calm,Calm,-,N/A,,Clear,0,2012-11-17 09:33:00
4:48 AM,28.4,24.8,86,30.54,3.0,Calm,Calm,-,N/A,,Clear,0,2012-11-17 09:48:00
4:53 AM,28.0,25.0,88,30.57,2.5,Calm,Calm,-,N/A,,Clear,0,2012-11-17 09:53:00
4:56 AM,28.4,24.8,86,30.54,1.0,Calm,Calm,-,N/A,,Clear,0,2012-11-17 09:56:00
5:08 AM,28.4,24.8,86,30.54,2.0,SSE,4.6,-,N/A,,Clear,160,2012-11-17 10:08:00
5:32 AM,28.4,26.6,93,30.55,3.0,Calm,Calm,-,N/A,,Clear,0,2012-11-17 10:32:00
5:53 AM,26.1,24.1,92,30.58,2.5,Calm,Calm,-,N/A,,Clear,0,2012-11-17 10:53:00
6:04 AM,26.6,23.0,86,30.54,3.0,Calm,Calm,-,N/A,,Clear,0,2012-11-17 11:04:00
6:53 AM,27.0,24.1,89,30.59,3.0,Calm,Calm,-,N/A,,Clear,0,2012-11-17 11:53:00
7:34 AM,26.6,24.8,93,30.57,2.5,Calm,Calm,-,N/A,,Clear,0,2012-11-17 12:34:00
7:53 AM,27.0,25.0,92,30.61,2.5,Calm,Calm,-,N/A,,Mostly Cloudy,0,2012-11-17 12:53:00
8:30 AM,30.2,26.6,86,30.58,3.0,Calm,Calm,-,N/A,,Mostly Cloudy,0,2012-11-17 13:30:00
8:53 AM,30.9,28.0,89,30.62,3.0,Calm,Calm,-,N/A,,Mostly Cloudy,0,2012-11-17 13:53:00
9:53 AM,39.9,32.0,73,30.62,4.0,Calm,Calm,-,N/A,,Haze,0,2012-11-17 14:53:00
10:53 AM,46.0,30.9,56,30.62,8.0,South,4.6,-,N/A,,Mostly Cloudy,180,2012-11-17 15:53:00
11:53 AM,48.9,28.9,46,30.60,10.0,South,8.1,-,N/A,,Mostly Cloudy,170,2012-11-17 16:53:00
12:53 PM,51.1,28.0,41,30.58,10.0,South,9.2,-,N/A,,Mostly Cloudy,170,2012-11-17 17:53:00
1:53 PM,52.0,28.0,40,30.58,10.0,SSW,4.6,-,N/A,,Mostly Cloudy,200,2012-11-17 18:53:00
2:53 PM,52.0,27.0,38,30.57,10.0,SSE,8.1,-,N/A,,Mostly Cloudy,160,2012-11-17 19:53:00
3:53 PM,52.0,28.0,40,30.56,10.0,SSE,5.8,-,N/A,,Mostly Cloudy,160,2012-11-17 20:53:00
4:53 PM,48.9,28.0,44,30.56,10.0,SE,4.6,-,N/A,,Mostly Cloudy,130,2012-11-17 21:53:00
5:53 PM,46.0,28.9,51,30.56,10.0,ESE,4.6,-,N/A,,Mostly Cloudy,120,2012-11-17 22:53:00
6:53 PM,37.4,28.4,70,30.53,10.0,SE,3.5,-,N/A,,Scattered Clouds,130,2012-11-17 23:53:00
7:53 PM,41.0,30.0,65,30.56,10.0,SE,6.9,-,N/A,,Scattered Clouds,140,2012-11-18 00:53:00
8:53 PM,42.1,30.9,65,30.56,10.0,SSE,6.9,-,N/A,,Scattered Clouds,150,2012-11-18 01:53:00
9:53 PM,39.9,30.9,70,30.56,8.0,SSE,6.9,-,N/A,,Partly Cloudy,150,2012-11-18 02:53:00
10:53 PM,37.9,30.0,73,30.55,7.0,SE,6.9,-,N/A,,Scattered Clouds,140,2012-11-18 03:53:00
11:53 PM,37.9,28.9,70,30.55,7.0,SSE,6.9,-,N/A,,Scattered Clouds,150,2012-11-18 04:53:00